LHA3434 EDDH-LPPR

Flight info

Callsign LHA3434
Flight time N/A
Altitude 32000
Route WSN N125 ITMIZ DCT WOODY DCT CIV DCT MEDIL DCT KOVIN DCT DUCRA UM728 RESMI UN857 DISAK DCT DIRMO DCT ARTAX DCT BEBIX DCT LMG DCT UVELI DCT OSMOB DCT VAVIX DCT BTZ DCT URUNA P181 NEA N976 ZMR L155 ADORO DCT ELGIX
Aircraft A319/M-SDE1E2FGIRWYZ/S

Departure

Time 2026-04-22 06:16
Airport Hamburg Helmut Schmidt Airport (EDDH)

Arrival

Time N/A
Airport Francisco de Sá Carneiro Airport (LPPR)
Time Latitude Longitude Altitude Speed Heading
2026-04-22 05:55 53.63034 10.00351 61 ft 0 kts 120°
2026-04-22 06:10 53.63035 10.00348 61 ft 3 kts 120°
2026-04-22 06:10 53.63048 10.00311 61 ft 3 kts 120°
2026-04-22 06:10 53.63061 10.00272 61 ft 3 kts 120°
2026-04-22 06:11 53.63065 10.00231 61 ft 3 kts 72°
2026-04-22 06:11 53.63058 10.00211 61 ft 0 kts 45°
2026-04-22 06:13 53.63059 10.00213 61 ft 0 kts 45°
2026-04-22 06:13 53.63065 10.00223 61 ft 1 kts 45°
2026-04-22 06:13 53.63085 10.00238 61 ft 5 kts
2026-04-22 06:13 53.63137 10.00222 61 ft 9 kts 349°
2026-04-22 06:14 53.63218 10.00202 61 ft 13 kts 359°
2026-04-22 06:14 53.63317 10.00198 61 ft 14 kts 357°
2026-04-22 06:14 53.63414 10.00159 61 ft 14 kts 320°
2026-04-22 06:14 53.63478 10.00019 61 ft 15 kts 305°
2026-04-22 06:15 53.63531 9.99863 61 ft 15 kts 270°
2026-04-22 06:15 53.63458 9.99683 61 ft 37 kts 230°
2026-04-22 06:15 53.63123 9.99002 62 ft 110 kts 230°
2026-04-22 06:15 53.62499 9.97746 63 ft 168 kts 230°
2026-04-22 06:16 53.61709 9.96133 525 ft 182 kts 232°
2026-04-22 06:16 53.60968 9.94590 1476 ft 166 kts 232°
2026-04-22 06:16 53.60242 9.93095 2160 ft 172 kts 232°
2026-04-22 06:16 53.59447 9.91454 2616 ft 192 kts 231°
2026-04-22 06:17 53.58563 9.89633 3166 ft 209 kts 231°
2026-04-22 06:17 53.57637 9.87728 3934 ft 215 kts 231°
2026-04-22 06:17 53.56795 9.85708 4803 ft 216 kts 241°
2026-04-22 06:17 53.56166 9.83361 5488 ft 227 kts 248°
2026-04-22 06:18 53.55597 9.80791 5994 ft 245 kts 249°
2026-04-22 06:18 53.55009 9.78058 6651 ft 256 kts 249°
2026-04-22 06:18 53.54402 9.75239 7528 ft 258 kts 249°
2026-04-22 06:18 53.53796 9.72446 8382 ft 260 kts 249°
2026-04-22 06:19 53.53176 9.69605 9217 ft 262 kts 249°
2026-04-22 06:19 53.52542 9.66715 10045 ft 264 kts 248°
2026-04-22 06:19 53.51902 9.63810 10694 ft 273 kts 248°
2026-04-22 06:19 53.51222 9.60739 11074 ft 291 kts 248°
2026-04-22 06:20 53.50499 9.57477 11413 ft 309 kts 248°
2026-04-22 06:20 53.49725 9.53982 11826 ft 324 kts 248°
2026-04-22 06:20 53.48938 9.50432 12536 ft 328 kts 248°
2026-04-22 06:20 53.48141 9.46849 13323 ft 329 kts 248°
2026-04-22 06:21 53.47345 9.43275 14064 ft 330 kts 248°
2026-04-22 06:21 53.46546 9.39701 14772 ft 332 kts 249°
2026-04-22 06:21 53.45732 9.36060 15473 ft 334 kts 249°
2026-04-22 06:21 53.44919 9.32429 16154 ft 336 kts 248°
2026-04-22 06:22 53.44096 9.28753 16822 ft 337 kts 248°
2026-04-22 06:22 53.43276 9.25098 17462 ft 339 kts 248°
2026-04-22 06:22 53.42437 9.21372 18093 ft 341 kts 248°
2026-04-22 06:22 53.41607 9.17689 18694 ft 343 kts 248°
2026-04-22 06:23 53.40761 9.13946 19284 ft 345 kts 248°
2026-04-22 06:23 53.39910 9.10188 19855 ft 346 kts 249°
2026-04-22 06:23 53.39057 9.06432 20390 ft 349 kts 249°
2026-04-22 06:23 53.38183 9.02587 20807 ft 354 kts 249°
2026-04-22 06:24 53.36428 8.94889 21827 ft 358 kts 249°
2026-04-22 06:24 53.35540 8.91005 22345 ft 359 kts 250°
2026-04-22 06:24 53.34647 8.87099 22846 ft 360 kts 250°
2026-04-22 06:25 53.33782 8.83208 23326 ft 361 kts 250°
2026-04-22 06:25 53.32912 8.79253 23764 ft 363 kts 251°
2026-04-22 06:25 53.32041 8.75306 24184 ft 365 kts 251°
2026-04-22 06:25 53.31155 8.71303 24618 ft 367 kts 251°
2026-04-22 06:26 53.30274 8.67328 25044 ft 368 kts 251°
2026-04-22 06:26 53.29394 8.63342 25452 ft 370 kts 251°
2026-04-22 06:26 53.28510 8.59301 25852 ft 371 kts 251°
2026-04-22 06:26 53.27615 8.55210 26245 ft 373 kts 251°
2026-04-22 06:27 53.26735 8.51178 26620 ft 374 kts 252°
2026-04-22 06:27 53.25925 8.47049 26961 ft 376 kts 254°
2026-04-22 06:27 53.25140 8.42869 27312 ft 378 kts 254°
2026-04-22 06:27 53.24350 8.38692 27664 ft 379 kts 254°
2026-04-22 06:28 53.23555 8.34496 28022 ft 380 kts 253°
2026-04-22 06:28 53.22757 8.30296 28494 ft 378 kts 254°
2026-04-22 06:28 53.21973 8.26167 28990 ft 376 kts 254°
2026-04-22 06:28 53.21183 8.22018 29472 ft 373 kts 254°
2026-04-22 06:29 53.20404 8.17933 29929 ft 371 kts 254°
2026-04-22 06:29 53.19630 8.13881 30371 ft 370 kts 255°
2026-04-22 06:29 53.18856 8.09815 30798 ft 368 kts 255°
2026-04-22 06:29 53.18095 8.05768 31152 ft 368 kts 255°
2026-04-22 06:30 53.17331 8.01704 31455 ft 369 kts 255°
2026-04-22 06:30 53.16560 7.97612 31748 ft 369 kts 255°
2026-04-22 06:30 53.15887 7.94057 32001 ft 370 kts 255°
2026-04-22 06:30 53.15112 7.89971 32283 ft 370 kts 255°
2026-04-22 06:31 53.14337 7.85896 32419 ft 372 kts 256°
2026-04-22 06:31 53.12699 7.77717 32428 ft 373 kts 253°
2026-04-22 06:32 53.10629 7.69799 32432 ft 375 kts 248°
2026-04-22 06:32 53.08087 7.62199 32433 ft 377 kts 244°
2026-04-22 06:33 53.05107 7.55046 32434 ft 380 kts 239°
2026-04-22 06:33 53.01816 7.48210 32434 ft 379 kts 239°
2026-04-22 06:34 52.98541 7.41440 32434 ft 377 kts 239°
2026-04-22 06:34 52.95324 7.34829 32434 ft 375 kts 239°
2026-04-22 06:35 52.92041 7.28110 32433 ft 375 kts 239°
2026-04-22 06:35 52.89001 7.21905 32432 ft 375 kts 239°
2026-04-22 06:36 52.85719 7.15228 32433 ft 374 kts 238°
2026-04-22 06:36 52.82434 7.08567 32430 ft 371 kts 238°
2026-04-22 06:37 52.79183 7.01994 32425 ft 368 kts 238°
2026-04-22 06:37 52.75975 6.95524 32418 ft 366 kts 237°
2026-04-22 06:38 52.72759 6.89059 32411 ft 365 kts 237°
2026-04-22 06:38 52.69552 6.82627 32407 ft 365 kts 237°
2026-04-22 06:39 52.66316 6.76153 32406 ft 365 kts 237°
2026-04-22 06:39 52.63110 6.69756 32406 ft 365 kts 237°
2026-04-22 06:40 52.59883 6.63331 32406 ft 365 kts 237°
2026-04-22 06:40 52.56661 6.56932 32409 ft 365 kts 237°
2026-04-22 06:41 52.53419 6.50512 32416 ft 365 kts 237°
2026-04-22 06:41 52.50192 6.44137 32428 ft 365 kts 237°
2026-04-22 06:42 52.46939 6.37727 32441 ft 365 kts 237°
2026-04-22 06:42 52.43818 6.31594 32448 ft 365 kts 237°
2026-04-22 06:43 52.40580 6.25243 32442 ft 365 kts 237°
2026-04-22 06:43 52.37326 6.18877 32431 ft 365 kts 237°
2026-04-22 06:44 52.34065 6.12513 32417 ft 365 kts 237°
2026-04-22 06:44 52.30810 6.06177 32401 ft 365 kts 237°
2026-04-22 06:45 52.27542 5.99833 32390 ft 365 kts 237°
2026-04-22 06:45 52.24283 5.93524 32383 ft 365 kts 237°
2026-04-22 06:46 52.21013 5.87210 32382 ft 367 kts 237°
2026-04-22 06:46 52.17715 5.80855 32382 ft 367 kts 237°
2026-04-22 06:47 52.14434 5.74550 32381 ft 367 kts 237°
2026-04-22 06:47 52.11145 5.68244 32381 ft 367 kts 237°
2026-04-22 06:48 52.07850 5.61944 32383 ft 367 kts 237°
2026-04-22 06:48 52.04542 5.55634 32385 ft 366 kts 237°
2026-04-22 06:49 52.01257 5.49384 32385 ft 366 kts 237°
2026-04-22 06:49 51.97935 5.43079 32385 ft 366 kts 237°
2026-04-22 06:50 51.94632 5.36825 32386 ft 366 kts 237°
2026-04-22 06:50 51.91318 5.30569 32389 ft 367 kts 236°
2026-04-22 06:51 51.88008 5.24332 32389 ft 367 kts 236°
2026-04-22 06:51 51.84676 5.18069 32387 ft 367 kts 236°
2026-04-22 06:52 51.81353 5.11839 32383 ft 367 kts 236°
2026-04-22 06:52 51.78033 5.05632 32381 ft 367 kts 236°
2026-04-22 06:53 51.74697 4.99409 32381 ft 366 kts 236°
2026-04-22 06:53 51.71383 4.93246 32381 ft 364 kts 236°
2026-04-22 06:54 51.68076 4.87108 32381 ft 361 kts 237°
2026-04-22 06:54 51.64796 4.81036 32381 ft 359 kts 237°
2026-04-22 06:55 51.61538 4.75016 32380 ft 358 kts 237°
2026-04-22 06:55 51.58274 4.68999 32377 ft 358 kts 237°
2026-04-22 06:56 51.55009 4.62997 32373 ft 358 kts 237°
2026-04-22 06:56 51.51737 4.56997 32367 ft 358 kts 237°
2026-04-22 06:57 51.48467 4.51016 32360 ft 358 kts 237°
2026-04-22 06:57 51.45088 4.45162 32358 ft 362 kts 233°
2026-04-22 06:58 51.41266 4.39868 32357 ft 369 kts 227°
2026-04-22 06:58 51.36971 4.35212 32357 ft 377 kts 222°
2026-04-22 06:59 51.32270 4.31357 32357 ft 387 kts 215°
2026-04-22 06:59 51.27300 4.28071 32357 ft 387 kts 214°
2026-04-22 07:00 51.22322 4.24805 32361 ft 386 kts 214°
2026-04-22 07:00 51.17379 4.21585 32364 ft 386 kts 214°
2026-04-22 07:01 51.12408 4.18363 32365 ft 386 kts 214°
2026-04-22 07:01 51.07452 4.15161 32366 ft 386 kts 214°
2026-04-22 07:02 51.02494 4.11966 32366 ft 387 kts 214°
2026-04-22 07:02 50.97483 4.08731 32365 ft 393 kts 213°
2026-04-22 07:03 50.92400 4.05461 32363 ft 400 kts 212°
2026-04-22 07:03 50.87182 4.02121 32359 ft 408 kts 211°
2026-04-22 07:04 50.81945 3.98795 32356 ft 408 kts 211°
2026-04-22 07:04 50.76670 3.95449 32351 ft 408 kts 211°
2026-04-22 07:05 50.71420 3.92120 32345 ft 408 kts 211°
2026-04-22 07:05 50.66176 3.88801 32339 ft 408 kts 211°
2026-04-22 07:06 50.60914 3.85479 32332 ft 408 kts 211°
2026-04-22 07:06 50.55674 3.82129 32328 ft 407 kts 213°
2026-04-22 07:07 50.50523 3.78591 32325 ft 406 kts 213°
2026-04-22 07:07 50.45363 3.75050 32321 ft 407 kts 213°
2026-04-22 07:08 50.40200 3.71534 32317 ft 407 kts 213°
2026-04-22 07:08 50.34996 3.68005 32313 ft 407 kts 213°
2026-04-22 07:09 50.29835 3.64511 32309 ft 407 kts 213°
2026-04-22 07:09 50.24747 3.61075 32305 ft 407 kts 213°
2026-04-22 07:10 50.19578 3.57594 32302 ft 407 kts 213°
2026-04-22 07:10 50.14400 3.54115 32299 ft 407 kts 213°
2026-04-22 07:11 50.09200 3.50631 32298 ft 407 kts 213°
2026-04-22 07:11 50.04018 3.47167 32298 ft 407 kts 213°
2026-04-22 07:12 49.98865 3.43730 32295 ft 407 kts 213°
2026-04-22 07:12 49.93673 3.40276 32290 ft 407 kts 213°
2026-04-22 07:13 49.89643 3.37600 32285 ft 407 kts 213°
2026-04-22 07:13 49.84445 3.34158 32280 ft 407 kts 212°
2026-04-22 07:14 49.79240 3.30717 32274 ft 407 kts 212°
2026-04-22 07:14 49.74033 3.27283 32272 ft 407 kts 212°
2026-04-22 07:15 49.68856 3.23878 32272 ft 407 kts 212°
2026-04-22 07:15 49.63641 3.20456 32272 ft 407 kts 212°
2026-04-22 07:16 49.58450 3.17059 32271 ft 408 kts 212°
2026-04-22 07:16 49.53217 3.13637 32270 ft 408 kts 213°
2026-04-22 07:17 49.48201 3.09856 32270 ft 401 kts 218°
2026-04-22 07:17 49.43490 3.05400 32268 ft 395 kts 222°
2026-04-22 07:18 49.38923 3.00766 32260 ft 395 kts 222°
2026-04-22 07:18 49.34355 2.96152 32247 ft 393 kts 222°
2026-04-22 07:19 49.29827 2.91579 32234 ft 391 kts 222°
2026-04-22 07:19 49.25300 2.87014 32225 ft 390 kts 222°
2026-04-22 07:20 49.20792 2.82474 32220 ft 390 kts 222°
2026-04-22 07:20 49.16281 2.77942 32218 ft 390 kts 222°
2026-04-22 07:21 49.11754 2.73404 32217 ft 390 kts 222°
2026-04-22 07:21 49.07217 2.68857 32214 ft 395 kts 221°
2026-04-22 07:22 49.02445 2.64090 32213 ft 402 kts 220°
2026-04-22 07:22 48.97743 2.59409 32213 ft 410 kts 219°
2026-04-22 07:23 48.92927 2.54625 32215 ft 413 kts 219°
2026-04-22 07:23 48.88123 2.49870 32213 ft 413 kts 219°
2026-04-22 07:24 48.83320 2.45125 32207 ft 413 kts 219°
2026-04-22 07:24 48.78445 2.40320 32200 ft 413 kts 219°
2026-04-22 07:25 48.73636 2.35589 32194 ft 413 kts 219°
2026-04-22 07:25 48.68834 2.30877 32191 ft 414 kts 219°
2026-04-22 07:26 48.63986 2.26175 32190 ft 415 kts 217°
2026-04-22 07:26 48.58884 2.22040 32189 ft 420 kts 211°
2026-04-22 07:27 48.53458 2.18712 32189 ft 426 kts 206°
2026-04-22 07:27 48.47731 2.16248 32189 ft 431 kts 200°
2026-04-22 07:28 48.38992 2.13411 32182 ft 430 kts 199°
2026-04-22 07:28 48.33087 2.11855 32168 ft 435 kts 194°
2026-04-22 07:29 48.27044 2.11236 32152 ft 441 kts 188°
2026-04-22 07:29 48.20905 2.11607 32142 ft 448 kts 182°
2026-04-22 07:30 48.14733 2.12802 32137 ft 447 kts 181°
2026-04-22 07:30 48.08598 2.13411 32136 ft 442 kts 185°
2026-04-22 07:31 48.02440 2.13768 32135 ft 443 kts 185°
2026-04-22 07:31 47.96308 2.14130 32135 ft 443 kts 185°
2026-04-22 07:32 47.90195 2.14489 32135 ft 443 kts 185°
2026-04-22 07:32 47.84308 2.14834 32135 ft 443 kts 185°
2026-04-22 07:33 47.78155 2.15194 32135 ft 443 kts 185°
2026-04-22 07:33 47.72419 2.15529 32135 ft 443 kts 185°
2026-04-22 07:34 47.66269 2.15888 32135 ft 443 kts 185°
2026-04-22 07:34 47.60170 2.16243 32135 ft 443 kts 185°
2026-04-22 07:35 47.54028 2.16600 32135 ft 443 kts 185°
2026-04-22 07:35 47.47873 2.16956 32134 ft 443 kts 185°
2026-04-22 07:36 47.41772 2.17309 32126 ft 443 kts 185°
2026-04-22 07:36 47.35627 2.17664 32111 ft 443 kts 185°
2026-04-22 07:37 47.29488 2.18019 32095 ft 443 kts 185°
2026-04-22 07:37 47.23366 2.18373 32087 ft 443 kts 185°
2026-04-22 07:38 47.17239 2.18685 32082 ft 441 kts 187°
2026-04-22 07:38 47.11194 2.18269 32078 ft 435 kts 193°
2026-04-22 07:39 47.05282 2.16870 32071 ft 429 kts 199°
2026-04-22 07:39 46.99577 2.14544 32063 ft 423 kts 206°
2026-04-22 07:40 46.94044 2.11785 32058 ft 424 kts 206°
2026-04-22 07:40 46.88538 2.09056 32055 ft 423 kts 207°
2026-04-22 07:41 46.83004 2.06315 32054 ft 423 kts 207°
2026-04-22 07:41 46.77454 2.03569 32054 ft 423 kts 207°
2026-04-22 07:42 46.71883 2.00822 32054 ft 423 kts 207°
2026-04-22 07:42 46.66340 1.98096 32054 ft 423 kts 207°
2026-04-22 07:43 46.60779 1.95368 32054 ft 423 kts 207°
2026-04-22 07:43 46.55209 1.92641 32054 ft 423 kts 207°
2026-04-22 07:44 46.49649 1.89926 32054 ft 423 kts 207°
2026-04-22 07:44 46.44085 1.87214 32054 ft 423 kts 207°
2026-04-22 07:45 46.38531 1.84514 32054 ft 423 kts 207°
2026-04-22 07:45 46.33089 1.81789 32054 ft 420 kts 209°
2026-04-22 07:46 46.27808 1.78325 32054 ft 414 kts 216°
2026-04-22 07:46 46.22907 1.74078 32054 ft 409 kts 221°
2026-04-22 07:47 46.18418 1.69118 32048 ft 408 kts 227°
2026-04-22 07:47 46.14130 1.63780 32034 ft 410 kts 227°
2026-04-22 07:48 46.09824 1.58431 32013 ft 410 kts 227°
2026-04-22 07:48 46.05783 1.53412 31994 ft 410 kts 227°
2026-04-22 07:49 46.01503 1.48058 31981 ft 409 kts 229°
2026-04-22 07:49 45.97548 1.42261 31975 ft 405 kts 234°
2026-04-22 07:50 45.94089 1.35947 31972 ft 401 kts 240°
2026-04-22 07:50 45.91154 1.29205 31972 ft 398 kts 245°
2026-04-22 07:51 45.88627 1.22223 31971 ft 397 kts 246°
2026-04-22 07:51 45.86147 1.15272 31970 ft 397 kts 246°
2026-04-22 07:52 45.83340 1.08458 31970 ft 402 kts 240°
2026-04-22 07:52 45.79966 1.02038 31970 ft 406 kts 233°
2026-04-22 07:53 45.76085 0.96172 31970 ft 410 kts 227°
2026-04-22 07:53 45.71744 0.90811 31971 ft 413 kts 225°
2026-04-22 07:54 45.67363 0.85559 31970 ft 413 kts 224°
2026-04-22 07:54 45.62969 0.80310 31966 ft 413 kts 224°
2026-04-22 07:55 45.58557 0.75054 31960 ft 413 kts 224°
2026-04-22 07:55 45.54174 0.69848 31952 ft 413 kts 224°
2026-04-22 07:56 45.49757 0.64611 31949 ft 413 kts 224°
2026-04-22 07:56 45.45363 0.59414 31951 ft 413 kts 224°
2026-04-22 07:57 45.40948 0.54202 31955 ft 412 kts 224°
2026-04-22 07:57 45.36552 0.49023 31957 ft 413 kts 224°
2026-04-22 07:58 45.32144 0.43842 31958 ft 412 kts 224°
2026-04-22 07:58 45.27736 0.38672 31956 ft 413 kts 224°
2026-04-22 07:59 45.23297 0.33476 31955 ft 413 kts 224°
2026-04-22 07:59 45.18871 0.28307 31950 ft 414 kts 224°
2026-04-22 08:00 45.14440 0.23141 31942 ft 413 kts 224°
2026-04-22 08:00 45.10035 0.18021 31932 ft 413 kts 224°
2026-04-22 08:01 45.05606 0.12884 31923 ft 413 kts 224°
2026-04-22 08:01 45.01166 0.07741 31918 ft 413 kts 224°
2026-04-22 08:02 44.96726 0.02611 31917 ft 412 kts 225°
2026-04-22 08:02 44.92319 -0.02473 31916 ft 412 kts 225°
2026-04-22 08:03 44.88117 -0.07311 31916 ft 412 kts 225°
2026-04-22 08:03 44.83688 -0.12398 31916 ft 412 kts 225°
2026-04-22 08:04 44.79257 -0.17476 31916 ft 412 kts 225°
2026-04-22 08:04 44.74805 -0.22566 31916 ft 412 kts 225°
2026-04-22 08:05 44.70376 -0.27617 31916 ft 412 kts 225°
2026-04-22 08:05 44.65913 -0.32679 31916 ft 413 kts 224°
2026-04-22 08:06 44.61247 -0.37357 31917 ft 416 kts 221°
2026-04-22 08:06 44.56477 -0.41963 31916 ft 416 kts 221°
2026-04-22 08:07 44.51753 -0.46511 31916 ft 416 kts 221°
2026-04-22 08:07 44.46978 -0.51096 31916 ft 416 kts 221°
2026-04-22 08:08 44.42232 -0.55640 31915 ft 415 kts 221°
2026-04-22 08:08 44.37478 -0.60181 31909 ft 416 kts 221°
2026-04-22 08:09 44.32699 -0.64736 31902 ft 416 kts 221°
2026-04-22 08:09 44.27952 -0.69253 31896 ft 416 kts 220°
2026-04-22 08:10 44.23264 -0.73978 31891 ft 415 kts 222°
2026-04-22 08:10 44.18644 -0.78731 31890 ft 415 kts 222°
2026-04-22 08:11 44.14014 -0.83468 31890 ft 415 kts 222°
2026-04-22 08:11 44.09362 -0.88204 31890 ft 415 kts 222°
2026-04-22 08:12 44.04717 -0.92919 31890 ft 415 kts 222°
2026-04-22 08:12 44.00066 -0.97629 31890 ft 415 kts 222°
2026-04-22 08:13 43.95419 -1.02325 31890 ft 414 kts 222°
2026-04-22 08:13 43.90768 -1.07016 31890 ft 412 kts 222°
2026-04-22 08:14 43.86153 -1.11659 31890 ft 411 kts 222°
2026-04-22 08:14 43.81538 -1.16297 31890 ft 410 kts 222°
2026-04-22 08:15 43.76941 -1.20906 31890 ft 409 kts 222°
2026-04-22 08:15 43.72361 -1.25488 31890 ft 408 kts 222°
2026-04-22 08:16 43.67778 -1.30065 31893 ft 409 kts 222°
2026-04-22 08:16 43.63151 -1.34677 31910 ft 409 kts 222°
2026-04-22 08:17 43.58551 -1.39252 31923 ft 409 kts 222°
2026-04-22 08:17 43.53988 -1.43804 31931 ft 407 kts 223°
2026-04-22 08:18 43.49645 -1.48801 31937 ft 403 kts 229°
2026-04-22 08:18 43.45767 -1.54251 31941 ft 400 kts 233°
2026-04-22 08:19 43.42312 -1.60172 31942 ft 397 kts 238°
2026-04-22 08:19 43.39222 -1.66413 31945 ft 396 kts 239°
2026-04-22 08:20 43.36133 -1.72740 31943 ft 396 kts 240°
2026-04-22 08:20 43.33087 -1.79005 31943 ft 396 kts 240°
2026-04-22 08:21 43.29924 -1.85201 31942 ft 398 kts 237°
2026-04-22 08:21 43.26822 -1.90839 31942 ft 397 kts 237°
2026-04-22 08:22 43.23496 -1.96879 31943 ft 398 kts 237°
2026-04-22 08:22 43.20163 -2.02911 31943 ft 397 kts 237°
2026-04-22 08:23 43.16846 -2.08898 31943 ft 398 kts 237°
2026-04-22 08:23 43.13491 -2.14942 31943 ft 398 kts 237°
2026-04-22 08:24 43.10150 -2.20947 31943 ft 398 kts 237°
2026-04-22 08:24 43.06822 -2.26917 31947 ft 398 kts 237°
2026-04-22 08:25 43.03466 -2.32922 31952 ft 398 kts 237°
2026-04-22 08:25 43.00102 -2.38943 31957 ft 401 kts 236°
2026-04-22 08:26 42.96714 -2.44992 31962 ft 406 kts 235°
2026-04-22 08:26 42.93274 -2.51112 31965 ft 411 kts 235°
2026-04-22 08:27 42.89777 -2.57317 31967 ft 416 kts 234°
2026-04-22 08:27 42.86217 -2.63619 31967 ft 421 kts 234°
2026-04-22 08:28 42.82643 -2.69922 31969 ft 422 kts 233°
2026-04-22 08:28 42.79059 -2.76240 31969 ft 422 kts 233°
2026-04-22 08:29 42.75483 -2.82527 31969 ft 422 kts 233°
2026-04-22 08:29 42.71930 -2.88800 31969 ft 422 kts 234°
2026-04-22 08:30 42.68412 -2.95142 31969 ft 421 kts 234°
2026-04-22 08:30 42.64878 -3.01505 31969 ft 421 kts 234°
2026-04-22 08:31 42.61363 -3.07811 31969 ft 421 kts 234°
2026-04-22 08:32 42.56058 -3.17295 31971 ft 421 kts 234°
2026-04-22 08:32 42.52509 -3.23622 31979 ft 421 kts 234°
2026-04-22 08:33 42.48974 -3.29910 31993 ft 421 kts 234°
2026-04-22 08:33 42.45426 -3.36206 32007 ft 421 kts 234°
2026-04-22 08:34 42.41880 -3.42485 32017 ft 421 kts 234°
2026-04-22 08:34 42.38341 -3.48739 32021 ft 421 kts 234°
2026-04-22 08:35 42.34795 -3.54992 32023 ft 421 kts 234°
2026-04-22 08:35 42.31247 -3.61238 32024 ft 421 kts 234°
2026-04-22 08:36 42.27680 -3.67502 32025 ft 421 kts 233°
2026-04-22 08:36 42.24114 -3.73751 32024 ft 421 kts 233°
2026-04-22 08:37 42.20536 -3.80009 32024 ft 421 kts 233°
2026-04-22 08:37 42.16981 -3.86212 32024 ft 421 kts 233°
2026-04-22 08:38 42.13409 -3.92433 32024 ft 421 kts 233°
2026-04-22 08:38 42.09820 -3.98669 32024 ft 421 kts 233°
2026-04-22 08:39 42.06266 -4.04903 32024 ft 420 kts 235°
2026-04-22 08:39 42.03095 -4.11442 32024 ft 420 kts 240°
2026-04-22 08:40 42.00411 -4.18410 32024 ft 419 kts 246°
2026-04-22 08:40 41.98111 -4.25578 32024 ft 419 kts 247°
2026-04-22 08:41 41.95820 -4.32768 32024 ft 419 kts 247°
2026-04-22 08:41 41.93530 -4.39945 32024 ft 419 kts 247°
2026-04-22 08:42 41.91242 -4.47100 32024 ft 419 kts 247°
2026-04-22 08:42 41.89712 -4.51876 32025 ft 419 kts 247°